Change the Weather History Date:

Thursday, November 8, 2012

  Actual Average Record
Temperature  
Mean Temperature 35 °F -  
Max Temperature 37 °F 34 °F 66 °F (1999)
Min Temperature 33 °F 23 °F 5 °F (2003)
Degree Days  
Heating Degree Days 30    
Moisture  
Dew Point 31 °F    
Average Humidity 83    
Maximum Humidity 93    
Minimum Humidity 75    
Precipitation  
Precipitation 0.00 in - - ()
Sea Level Pressure  
Sea Level Pressure 29.95 in    
Wind  
Wind Speed 6 mph (SW)    
Max Wind Speed 13 mph    
Max Gust Speed 21 mph    
Visibility 9 miles    
Events Rain    
Averages and records for this station are not official NWS values.
T = Trace of Precipitation, MM = Missing Value Source: NWS Daily Summary

Daily Weather History Graph

Daily Weather History Graph

Search for Another Location

Airport or City:

Trip Planner

Search our weather history database for the weather conditions in past years. The results will help you decide how hot, cold, wet, or windy it might be!

Date:

Astronomy

Nov. 08, 2012 Rise Set
Actual Time 6:57 AM CST 4:32 PM CST
Civil Twilight 6:24 AM CST 5:05 PM CST
Nautical Twilight 5:47 AM CST 5:42 PM CST
Astronomical Twilight 5:11 AM CST 6:18 PM CST
Moon 12:27 AM CST (11/8) 1:36 PM CST (11/8)
Length of Visible Light 10h 41m
Length of Day
9h 34m
Waning Crescent, 32% of the Moon is Illuminated
Nov 8
Waning Crescent
Nov 13
New
Nov 20
First Quarter
Nov 28
Full
Dec 6
Last Quarter

Hourly Weather History & Observations

Time (CST) Temp. Windchill Dew Point Humidity Pressure Visibility Wind Dir Wind Speed Gust Speed Precip Events Conditions
12:13 AM 33.8 °F 29.6 °F 30.2 °F 87% 30.01 in 10.0 mi SSW 4.6 mph - N/A   Overcast
12:34 AM 33.8 °F 30.8 °F 30.2 °F 87% 30.01 in 7.0 mi SSW 3.5 mph - N/A   Mostly Cloudy
12:53 AM 33.8 °F 30.8 °F 30.2 °F 87% 30.00 in 7.0 mi South 3.5 mph - N/A   Mostly Cloudy
1:14 AM 33.8 °F 30.8 °F 30.2 °F 87% 30.00 in 5.0 mi South 3.5 mph - N/A   Mostly Cloudy
1:53 AM 33.8 °F 29.6 °F 30.2 °F 87% 29.99 in 5.0 mi South 4.6 mph - N/A   Overcast
2:13 AM 33.8 °F 29.6 °F 30.2 °F 87% 29.99 in 5.0 mi South 4.6 mph - N/A   Overcast
2:34 AM 33.8 °F 29.6 °F 30.2 °F 87% 30.00 in 7.0 mi South 4.6 mph - N/A   Overcast
2:53 AM 33.8 °F 28.6 °F 30.2 °F 87% 30.00 in 10.0 mi SSW 5.8 mph - N/A   Overcast
3:14 AM 33.8 °F 27.0 °F 30.2 °F 87% 30.00 in 10.0 mi South 8.1 mph - N/A   Mostly Cloudy
3:33 AM 33.8 °F 28.6 °F 30.2 °F 87% 30.00 in 10.0 mi South 5.8 mph - N/A   Overcast
3:54 AM 33.8 °F 30.8 °F 30.2 °F 87% 29.99 in 10.0 mi South 3.5 mph - N/A   Overcast
4:13 AM 33.8 °F 29.6 °F 30.2 °F 87% 29.98 in 10.0 mi South 4.6 mph - N/A   Mostly Cloudy
4:33 AM 33.8 °F 28.6 °F 30.2 °F 87% 29.97 in 7.0 mi South 5.8 mph - N/A Rain Light Rain
5:13 AM 33.8 °F 27.0 °F 30.2 °F 87% 29.95 in 10.0 mi South 8.1 mph - N/A   Mostly Cloudy
5:33 AM 33.8 °F 27.7 °F 30.2 °F 87% 29.95 in 10.0 mi South 6.9 mph - N/A   Mostly Cloudy
5:54 AM 33.8 °F 26.4 °F 30.2 °F 87% 29.94 in 10.0 mi South 9.2 mph - N/A   Mostly Cloudy
6:13 AM 33.8 °F 27.7 °F 30.2 °F 87% 29.94 in 10.0 mi South 6.9 mph - N/A   Overcast
6:54 AM 33.8 °F 26.4 °F 30.2 °F 87% 29.93 in 7.0 mi South 9.2 mph 16.1 mph N/A   Overcast
7:13 AM 33.8 °F 25.3 °F 30.2 °F 87% 29.94 in 7.0 mi South 11.5 mph 18.4 mph N/A   Overcast
7:33 AM 33.8 °F 25.8 °F 30.2 °F 87% 29.93 in 10.0 mi South 10.4 mph 20.7 mph N/A   Overcast
7:54 AM 33.8 °F 25.8 °F 30.2 °F 87% 29.92 in 10.0 mi South 10.4 mph 18.4 mph N/A   Overcast
8:13 AM 33.8 °F 25.8 °F 30.2 °F 87% 29.92 in 10.0 mi South 10.4 mph 20.7 mph N/A   Overcast
8:33 AM 35.6 °F 28.0 °F 30.2 °F 81% 29.92 in 10.0 mi South 10.4 mph - N/A   Overcast
8:53 AM 35.6 °F 28.0 °F 30.2 °F 81% 29.93 in 10.0 mi South 10.4 mph 16.1 mph N/A   Overcast
9:14 AM 35.6 °F 27.1 °F 30.2 °F 81% 29.92 in 10.0 mi South 12.7 mph 19.6 mph N/A   Overcast
9:33 AM 35.6 °F 27.5 °F 30.2 °F 81% 29.92 in 10.0 mi South 11.5 mph 19.6 mph N/A   Overcast
9:54 AM 35.6 °F 29.9 °F 30.2 °F 81% 29.92 in 10.0 mi South 6.9 mph 18.4 mph N/A   Overcast
10:33 AM 35.6 °F 29.2 °F 30.2 °F 81% 29.90 in 10.0 mi South 8.1 mph 17.3 mph N/A   Overcast
10:54 AM 35.6 °F 28.6 °F 30.2 °F 81% 29.89 in 10.0 mi South 9.2 mph - N/A   Overcast
11:14 AM 37.4 °F 30.3 °F 30.2 °F 75% 29.86 in 10.0 mi South 10.4 mph 16.1 mph N/A   Overcast
11:33 AM 35.6 °F 29.2 °F 30.2 °F 81% 29.87 in 10.0 mi South 8.1 mph 16.1 mph N/A   Overcast
11:53 AM 35.6 °F 28.6 °F 30.2 °F 81% 29.87 in 10.0 mi South 9.2 mph 17.3 mph N/A   Overcast
12:14 PM 35.6 °F 28.6 °F 30.2 °F 81% 29.87 in 10.0 mi South 9.2 mph 16.1 mph N/A   Overcast
12:33 PM 35.6 °F 28.6 °F 30.2 °F 81% 29.87 in 10.0 mi SSW 9.2 mph - N/A   Overcast
12:54 PM 35.6 °F 30.7 °F 30.2 °F 81% 29.86 in 10.0 mi South 5.8 mph - N/A   Overcast
1:13 PM 35.6 °F 29.9 °F 30.2 °F 81% 29.86 in 10.0 mi South 6.9 mph - N/A   Overcast
1:33 PM 37.4 °F 32.8 °F 30.2 °F 75% 29.85 in 10.0 mi South 5.8 mph - N/A   Mostly Cloudy
1:54 PM 37.4 °F 32.8 °F 30.2 °F 75% 29.86 in 10.0 mi SSW 5.8 mph - N/A   Scattered Clouds
2:14 PM 37.4 °F 33.8 °F 30.2 °F 75% 29.86 in 10.0 mi SSW 4.6 mph - N/A   Mostly Cloudy
2:33 PM 37.4 °F 33.8 °F 30.2 °F 75% 29.87 in 10.0 mi SSW 4.6 mph - N/A   Overcast
2:53 PM 37.4 °F 33.8 °F 30.2 °F 75% 29.87 in 10.0 mi SSW 4.6 mph - N/A   Overcast
3:14 PM 37.4 °F 33.8 °F 32.0 °F 81% 29.88 in 10.0 mi SW 4.6 mph - N/A   Mostly Cloudy
3:33 PM 37.4 °F - 32.0 °F 81% 29.89 in 10.0 mi Calm Calm - N/A   Mostly Cloudy
3:53 PM 37.4 °F - 32.0 °F 81% 29.90 in 10.0 mi Calm Calm - N/A   Overcast
4:13 PM 37.4 °F - 32.0 °F 81% 29.91 in 10.0 mi Calm Calm - N/A   Overcast
4:34 PM 37.4 °F 32.1 °F 32.0 °F 81% 29.92 in 10.0 mi West 6.9 mph - N/A   Overcast
4:53 PM 37.4 °F 32.1 °F 32.0 °F 81% 29.93 in 10.0 mi West 6.9 mph - N/A   Overcast
5:13 PM 37.4 °F - 32.0 °F 81% 29.94 in 7.0 mi Calm Calm - N/A   Overcast
5:34 PM 37.4 °F 34.9 °F 33.8 °F 87% 29.94 in 3.0 mi West 3.5 mph - N/A   Overcast
5:53 PM 37.4 °F 34.9 °F 33.8 °F 87% 29.95 in 4.0 mi WNW 3.5 mph - N/A   Overcast
6:13 PM 35.6 °F 32.8 °F 33.8 °F 93% 29.96 in 4.0 mi West 3.5 mph - N/A   Overcast
6:34 PM 37.4 °F 34.9 °F 33.8 °F 87% 29.97 in 7.0 mi NW 3.5 mph - N/A   Overcast
6:53 PM 37.4 °F 32.8 °F 33.8 °F 87% 29.97 in 10.0 mi WNW 5.8 mph - N/A   Overcast
7:13 PM 37.4 °F 33.8 °F 33.8 °F 87% 29.97 in 10.0 mi NW 4.6 mph - N/A   Overcast
7:34 PM 37.4 °F 33.8 °F 32.0 °F 81% 29.98 in 10.0 mi NW 4.6 mph - N/A   Overcast
7:53 PM 37.4 °F 32.1 °F 32.0 °F 81% 29.98 in 10.0 mi NNW 6.9 mph - N/A   Overcast
8:13 PM 37.4 °F 33.8 °F 32.0 °F 81% 29.98 in 10.0 mi NW 4.6 mph - N/A   Overcast
8:33 PM 37.4 °F 33.8 °F 32.0 °F 81% 29.99 in 10.0 mi NW 4.6 mph - N/A   Overcast
8:53 PM 37.4 °F 32.8 °F 32.0 °F 81% 29.99 in 7.0 mi NNW 5.8 mph - N/A   Overcast
9:13 PM 35.6 °F 29.9 °F 32.0 °F 87% 30.00 in 10.0 mi NNW 6.9 mph - N/A   Overcast
9:34 PM 35.6 °F 28.0 °F 30.2 °F 81% 30.01 in 10.0 mi NNW 10.4 mph - N/A   Overcast
9:53 PM 35.6 °F 29.9 °F 30.2 °F 81% 30.02 in 10.0 mi NNW 6.9 mph - N/A   Overcast
10:13 PM 35.6 °F 28.6 °F 30.2 °F 81% 30.02 in 10.0 mi NNW 9.2 mph - N/A   Overcast
10:34 PM 35.6 °F 29.2 °F 28.4 °F 75% 30.02 in 10.0 mi NNW 8.1 mph - N/A   Overcast
10:53 PM 33.8 °F 25.3 °F 28.4 °F 81% 30.03 in 10.0 mi NNW 11.5 mph - N/A   Overcast
11:13 PM 33.8 °F 28.6 °F 28.4 °F 81% 30.04 in 10.0 mi NNW 5.8 mph - N/A   Overcast
11:34 PM 33.8 °F 28.6 °F 28.4 °F 81% 30.04 in 10.0 mi NNW 5.8 mph - N/A   Overcast
11:53 PM 33.8 °F 27.0 °F 28.4 °F 81% 30.05 in 10.0 mi North 8.1 mph - N/A   Overcast